Location: Soapstone Prairie Natural Area
(40.9437°N, 105.0829°W)
Time: 23:18:28
(UTC-06:00)

ISS - Visible Passes

Search period start: 26 September 2016 00:00
Search period end: 06 October 2016 00:00
Orbit: 400 x 410 km, 51.6° (Epoch: 27 September)

Date Brightness Start Highest point End Pass type
(mag) Time Alt. Az. Time Alt. Az. Time Alt. Az.
26 Sep -0.7 20:22:08 10° S 20:22:15 11° S 20:22:15 11° S visible
27 Sep -1.2 19:31:42 10° SSE 19:32:50 11° SE 19:33:16 11° ESE visible
27 Sep -0.4 21:05:38 10° WSW 21:06:00 13° WSW 21:06:00 13° WSW visible
28 Sep -3.3 20:13:39 10° SW 20:16:47 54° SE 20:16:47 54° SE visible
29 Sep -2.2 19:22:01 10° SSW 19:24:50 27° SE 19:27:22 12° ENE visible
29 Sep -1.1 20:58:13 10° W 21:00:04 26° WNW 21:00:04 26° WNW visible
30 Sep -2.9 20:05:50 10° WSW 20:09:03 61° NNW 20:10:28 30° NE visible
01 Oct -3.4 19:13:42 10° SW 19:16:56 71° SE 19:20:11 10° ENE visible
01 Oct -0.9 20:51:08 10° WNW 20:53:22 21° NNW 20:53:22 21° NNW visible
02 Oct -1.6 19:58:27 10° W 20:01:23 30° NNW 20:03:29 16° NNE visible
03 Oct -2.5 19:05:58 10° WSW 19:09:08 48° NNW 19:12:18 10° NE visible
03 Oct -0.7 20:44:11 10° NW 20:46:08 15° NNW 20:46:08 15° NNW visible
04 Oct -1.0 19:51:21 10° WNW 19:53:47 19° NNW 19:56:03 11° NNE visible
05 Oct -1.5 18:58:37 10° W 19:01:25 26° NNW 19:04:14 10° NE visible
05 Oct -0.5 20:37:08 10° NNW 20:38:34 13° N 20:38:34 13° N visible
